Location: Huntsville
(41.2590°N, 111.7678°W)
Time: 00:36:23
(UTC+00:00)

Courier 1B Rocket - Pass Details

Date: 23 June 2021
Orbit: 920 x 1202 km, 28.2° (Epoch: 29 July)

Event Time Altitude Azimuth Distance (km) Brightness Sun altitude
Rises 06:06:28 0° 253° (WSW) 3,663 8.1 -22.5°
Enters shadow 06:10:29 - 228° (SW) 2,803 7.2 -22.8°
Reaches altitude 10° 06:11:51 10° 217° (SW) 2,651 - -22.9°
Maximum altitude 06:13:06 11° 205° (SSW) 2,596 - -22.9°
Drops below altitude 10° 06:14:21 10° 194° (SSW) 2,628 - -23.0°
Sets 06:19:35 0° 157° (SSE) 3,541 - -23.3°
